Zurück zum Katalog

STARLINK-34099

AktivKommunikationVLEO
NORAD 63959·PAYLOAD·🇺🇸 United States

Gestartet May 13, 2025 von Cape Canaveral Space Force Station

Loading…

Nächste Überflüge (nächste 24 Stunden)

TLE

AktuellSource: CelesTrak SupGP

Epoche: Sep 14, 2026, 20:46 UTC

1 63959C 25099H   26257.86576389  .00009935  00000+0  35982-3 0  2573
2 63959  43.0026 188.1659 0001459 260.4216 140.3758 15.27576684    17

Verfolge STARLINK-34099 in Echtzeit mit AllMySat

Download on the App Store